Atwater, CA

2:25 AM PDT on May 29, 2017 (GMT -0700)
Castle

Weather History for KMER - February, 2013

Change the Weather History Date:

Wednesday, February 27, 2013

  Actual Average (KMCE) Record (KMCE)
Temperature  
Mean Temperature 51 °F -  
Max Temperature 69 °F 66 °F 72 °F (2002)
Min Temperature 33 °F 40 °F 27 °F (2011)
Degree Days  
Heating Degree Days 14    
Growing Degree Days 1 (Base 50)    
Moisture  
Dew Point 40 °F    
Average Humidity 86    
Maximum Humidity 100    
Minimum Humidity 31    
Precipitation  
Precipitation 0.00 in - - ()
Sea Level Pressure  
Sea Level Pressure 30.28 in    
Wind  
Wind Speed 1 mph (SE)    
Max Wind Speed 5 mph    
Max Gust Speed -    
Visibility 9 miles    
Events      
Averages and records for this station are not official NWS values.
T = Trace of Precipitation, MM = Missing Value Source: NWS Daily Summary

Daily Weather History Graph

Daily Weather History Graph

Search for Another Location

Airport or City:

Trip Planner

Search our weather history database for the weather conditions in past years. The results will help you decide how hot, cold, wet, or windy it might be!

Date:

Astronomy

Feb. 27, 2013 Rise Set
Actual Time 6:35 AM PST 5:54 PM PST
Civil Twilight 6:09 AM PST 6:20 PM PST
Nautical Twilight 5:39 AM PST 6:51 PM PST
Astronomical Twilight 5:09 AM PST 7:21 PM PST
Moon 8:17 PM PST (2/27) 7:17 AM PST (2/27)
Length of Visible Light 12h 11m
Length of Day
11h 18m
Waning Gibbous, 96% of the Moon is Illuminated
Feb 27
Waning Gibbous
Mar 4
Last Quarter
Mar 11
New
Mar 19
First Quarter
Mar 27
Full

Hourly Weather History & Observations

Time (PST) Temp. Windchill Dew Point Humidity Pressure Visibility Wind Dir Wind Speed Gust Speed Precip Events Conditions
12:15 AM 37.4 °F 33.8 °F 37.4 °F 100% 30.21 in 10.0 mi SE 4.6 mph - N/A   Clear
12:35 AM 37.4 °F 33.8 °F 37.4 °F 100% 30.21 in 10.0 mi SE 4.6 mph - N/A   Clear
12:55 AM 37.4 °F 34.9 °F 37.4 °F 100% 30.22 in 10.0 mi SE 3.5 mph - N/A   Clear
1:15 AM 37.4 °F - 37.4 °F 100% 30.22 in 10.0 mi Calm Calm - N/A   Clear
1:35 AM 37.4 °F - 37.4 °F 100% 30.23 in 10.0 mi Calm Calm - N/A   Clear
1:55 AM 37.4 °F - 37.4 °F 100% 30.23 in 10.0 mi Calm Calm - N/A   Clear
2:15 AM 37.4 °F - 37.4 °F 100% 30.23 in 10.0 mi Calm Calm - N/A   Clear
2:35 AM 37.4 °F - 37.4 °F 100% 30.24 in 10.0 mi Calm Calm - N/A   Clear
2:55 AM 37.4 °F - 37.4 °F 100% 30.24 in 10.0 mi Calm Calm - N/A   Clear
3:15 AM 37.4 °F - 37.4 °F 100% 30.24 in 10.0 mi Calm Calm - N/A   Clear
3:35 AM 35.6 °F - 35.6 °F 100% 30.24 in 10.0 mi Calm Calm - N/A   Clear
3:55 AM 35.6 °F - 35.6 °F 100% 30.24 in 10.0 mi Calm Calm - N/A   Clear
4:15 AM 35.6 °F - 35.6 °F 100% 30.25 in 10.0 mi Calm Calm - N/A   Clear
4:35 AM 37.4 °F - 37.4 °F 100% 30.25 in 10.0 mi Calm Calm - N/A   Clear
4:55 AM 35.6 °F - 35.6 °F 100% 30.26 in 10.0 mi Calm Calm - N/A   Clear
5:15 AM 35.6 °F - 35.6 °F 100% 30.27 in 10.0 mi Calm Calm - N/A   Clear
5:35 AM 35.6 °F - 35.6 °F 100% 30.28 in 10.0 mi Calm Calm - N/A   Clear
5:55 AM 33.8 °F - 33.8 °F 100% 30.28 in 10.0 mi Calm Calm - N/A   Clear
6:45 AM 33.8 °F - 33.8 °F 100% 30.29 in 10.0 mi Calm Calm - N/A   Clear
7:45 AM 37.4 °F - 37.4 °F 100% 30.31 in 10.0 mi Calm Calm - N/A   Clear
8:45 AM 48.2 °F - 48.2 °F 100% 30.33 in 10.0 mi Calm Calm - N/A   Clear
10:45 AM 60.8 °F - 44.6 °F 55% 30.33 in 7.0 mi Variable 4.6 mph - N/A   Partly Cloudy
11:45 AM 64.4 °F - 44.6 °F 49% 30.32 in 7.0 mi Variable 4.6 mph - N/A   Clear
12:45 PM 66.2 °F - 39.2 °F 37% 30.30 in 10.0 mi Calm Calm - N/A   Clear
1:45 PM 69.8 °F - 39.2 °F 33% 30.28 in 10.0 mi Calm Calm - N/A   Clear
2:45 PM 69.8 °F - 37.4 °F 31% 30.27 in 10.0 mi Calm Calm - N/A   Clear
3:45 PM 69.8 °F - 37.4 °F 31% 30.26 in 10.0 mi Calm Calm - N/A   Clear
4:50 PM 66.2 °F - 39.2 °F 37% 30.27 in 10.0 mi Calm Calm - N/A   Clear
6:45 PM 55.4 °F - 39.2 °F 54% 30.29 in 7.0 mi Calm Calm - N/A   Clear
7:45 PM 53.6 °F - 41.0 °F 62% 30.31 in 7.0 mi Calm Calm - N/A   Clear
8:35 PM 48.2 °F - 42.8 °F 82% 30.32 in 10.0 mi Calm Calm - N/A   Clear
8:45 PM 46.4 °F - 42.8 °F 87% 30.32 in 7.0 mi Calm Calm - N/A   Clear
8:55 PM 46.4 °F - 44.6 °F 93% 30.33 in 10.0 mi Calm Calm - N/A   Clear
9:15 PM 46.4 °F - 44.6 °F 93% 30.33 in 9.0 mi Calm Calm - N/A   Clear
9:35 PM 44.6 °F - 44.6 °F 100% 30.34 in 7.0 mi Calm Calm - N/A   Clear
10:15 PM 44.6 °F - 44.6 °F 100% 30.34 in 10.0 mi Calm Calm - N/A   Clear
10:35 PM 44.6 °F - 44.6 °F 100% 30.35 in 9.0 mi Calm Calm - N/A   Clear
10:55 PM 42.8 °F - 42.8 °F 100% 30.35 in 7.0 mi Calm Calm - N/A   Clear
11:15 PM 42.8 °F - 42.8 °F 100% 30.35 in 9.0 mi Calm Calm - N/A   Clear
11:35 PM 44.6 °F - 44.6 °F 100% 30.35 in 8.0 mi Calm Calm - N/A   Clear
11:55 PM 42.8 °F - 42.8 °F 100% 30.35 in 7.0 mi Calm Calm - N/A   Clear